Regional Weather Roundup
Issued by NWS

Home | Current Version | Previous Version | Graphics & Text | Print | Product List | Glossary On
Versions: 1 2 3 4 5 6 7 8 9 10 11 12 13 14 15 16 17 18 19 20 21 22 23 24 25 26 27 28 29 30 31 32 33 34 35 36 37 38 39 40 41 42 43 44 45 46 47 48 49 50
000
ASUS43 KMKX 290721
RWRWI

WISCONSIN REGIONAL WEATHER ROUNDUP
NATIONAL WEATHER SERVICE MILWAUKEE/SULLIVAN WI
200 AM CDT SAT APR 29 2017

NOTE: "FAIR" INDICATES FEW OR NO CLOUDS BELOW 12,000 FEET WITH NO
SIGNIFICANT WEATHER AND/OR OBSTRUCTIONS TO VISIBILITY.

WIZ001-002-006>008-014>016-023>028-290800-
NORTHWEST WISCONSIN

CITY           SKY/WX    TMP DP  RH WIND       PRES   REMARKS
SUPERIOR ARPT  CLEAR     30  27  90 CALM      30.22R
ASHLAND        CLEAR     28  26  92 SW5       30.22R WCI  23
HAYWARD        CLEAR     28  25  88 CALM      30.21R
SIREN          CLEAR     35  27  74 CALM      30.22R
CUMBERLAND     CLOUDY    34  28  80 NE8       30.20R WCI  27
RICE LAKE      CLOUDY    36  28  74 N12       30.21R WCI  28
CHETEK         CLOUDY    37  29  73 NE5       30.19R WCI  33
LADYSMITH      CLEAR     33  27  80 N7        30.20R WCI  27
EAU CLAIRE     CLOUDY    37  30  75 NE10      30.17R WCI  30
MENOMONIE      CLOUDY    38  31  76 N9        30.17R WCI  31
NEW RICHMOND   CLOUDY    38  28  67 N9        30.17S WCI  31
OSCEOLA        CLOUDY    38  28  66 N8        30.21S WCI  33
$$

WIZ003>005-009-010-017-018-290800-
NORTH CENTRAL WISCONSIN

CITY           SKY/WX    TMP DP  RH WIND       PRES   REMARKS
MANITOWISH WTR CLEAR     28  28  96 N3        30.16
ARBOR VITAE    CLEAR     32  29  90 CALM      30.15R
WOODRUFF       CLEAR     32  29  90 CALM      30.15R
RHINELANDER    CLEAR     30  26  85 CALM      30.15R
EAGLE RIVER    PTCLDY    29  24  81 N3        30.14R
LAND O LAKES   CLOUDY    31  27  85 N5        30.15S WCI  26
PHILLIPS       CLEAR     30  26  85 CALM      30.16R
TOMAHAWK       CLEAR     28  26  90 CALM      30.16R
MEDFORD        CLOUDY    32  27  83 N6        30.15R WCI  26
MERRILL        CLOUDY    31  27  84 N3        30.15R
$$

WIZ029-030-035-036-043>047-290800-
CENTRAL WISCONSIN

CITY           SKY/WX    TMP DP  RH WIND       PRES   REMARKS
WAUSAU         CLOUDY    34  27  75 N6        30.14R WCI  29
MOSINEE        PTCLDY    34  30  86 N7        30.16R WCI  28
MARSHFIELD     CLOUDY    37  28  70 NE13      30.13R WCI  29
STEVENS POINT  PTCLDY    33  32  96 N5        30.14R WCI  28
WAUPACA        MOCLDY    43  32  63 N3        30.13R
WAUTOMA        CLOUDY    44  30  57 NE6       30.12R
WISC RAPIDS    CLOUDY    37  31  78 NE5       30.14R WCI  33
CAMP DOUGLAS   MOCLDY    40  34  80 N3        30.12R
$$

WIZ011>013-019>022-031-037>040-048>050-290800-
NORTHEAST WISCONSIN

CITY           SKY/WX    TMP DP  RH WIND       PRES   REMARKS
ANTIGO         CLOUDY    30  26  83 N8        30.14R WCI  23
SHAWANO        CLOUDY    39  32  74 N12       30.14R WCI  32
OCONTO         PTCLDY    37  28  70 N9        30.14R WCI  31
STURGEON BAY   PTCLDY    39  30  70 N16G23    30.13R WCI  30
GREEN BAY      CLOUDY    44  31  60 N10       30.12R
MANITOWOC      CLOUDY    43  32  65 N10       30.10R
APPLETON       CLOUDY    41  28  60 N10       30.10S
CLINTONVILLE   CLOUDY    41  30  65 N9        30.14R
OSHKOSH        CLOUDY    44  29  55 N16       30.10S
$$

WIZ032>034-041-042-053>061-290800-
SOUTHWEST WISCONSIN

CITY           SKY/WX    TMP DP  RH WIND       PRES   REMARKS
LA CROSSE      PTCLDY    40  33  76 N5        30.13S
SPARTA         PTCLDY    39  33  78 N5        30.13F
VIROQUA        CLOUDY    39  33  78 N7        30.10F WCI  34
BOSCOBEL       PTCLDY    45  36  70 N6        30.08F
PRAIRIE DU CHI PTCLDY    43  35  73 N5        30.07F
PLATTEVILLE    CLOUDY    44  42  91 N10       30.03F
$$

WIZ056-057-062-063-064-067-068-290800-
SOUTH CENTRAL WISCONSIN

CITY           SKY/WX    TMP DP  RH WIND       PRES   REMARKS
REEDSBURG      CLOUDY    43  36  77 N8        30.09R
BARABOO/DELLS  PTCLDY    42  33  70 N8        30.07F
LONE ROCK      CLOUDY    44  37  76 N8        30.07F
MINERAL POINT  CLOUDY    45  41  87 N13       30.04F
MADISON        CLOUDY    44  38  79 N12       30.04F
MIDDLETON      CLOUDY    46  38  76 N12       30.05F
WATERTOWN      CLOUDY    45  41  86 N7        30.05R
MONROE         CLOUDY    43  39  87 N12       30.03R
JANESVILLE     CLOUDY    46  39  76 NE8       30.04R
$$

WIZ051-052-058>065-066-070>072-290800-
SOUTHEAST WISCONSIN

CITY           SKY/WX    TMP DP  RH WIND       PRES   REMARKS
MILWAUKEE      CLOUDY    44  41  89 N9        30.05R
WAUKESHA       CLOUDY    43  37  81 N7        30.06R
MILWAUKEE/TIMM CLOUDY    45  37  76 NE12      30.07R
RACINE         CLOUDY    42  37  82 NE12      30.06R
KENOSHA        CLOUDY    44  39  82 NE8       30.04R
FOND DU LAC    CLOUDY    45  30  55 N17G29    30.09F
SHEBOYGAN      CLOUDY    43  38  82 N9        30.06F
WEST BEND      CLOUDY    43  37  81 NE9       30.07R
JUNEAU         CLOUDY    44  37  76 N15       30.07R
$$

LSZ147-162-290800-
LAKE SUPERIOR

STATION/POSITION TIME  TEMP    WIND        PRES    WAVE
                       AIR SEA DIR/SP/G            HT/PER
                 (UTC) (F)     (DEG/KT/KT) (MB)    (FT/S)
DEVILS ISLAND    0700   37     280/  3/  4 1023.6R
PORT WING        0640   30     150/  4/  4 1023.0R
SAXON HARBOR     0640   29     190/  3/  4 1022.4R
$$

LMZ867-665-643>646-290800-
LAKE MICHIGAN

STATION/POSITION TIME  TEMP    WIND        PRES    WAVE
                       AIR SEA DIR/SP/G            HT/PER
                 (UTC) (F)     (DEG/KT/KT) (MB)    (FT/S)
CHAMBERS ISLAND  0640   38     330/ 18/ 21 1019.6R
N MID LAKE BUOY  0650   37 37  340/ 17/ 19 1020.7R   1/ 5
NORTHPORT PIER   0640   38     340/ 19/ 22 1019.6R
SISTER BAY       0606   39     350/ 23/ 27   N/A
KEWAUNEE LAKESHO 0700   43     350/  5/  8 1019.1
SHEBOYGAN LAKESH 0700   43      10/ 20/ 22 1018.6F
PORT WASHINGTON  0630   45      20/ 10/ 15 1018.3F
MILWAUKEE LAKESH 0700   42      20/ 16/ 18   N/A
S MID LAKE BUOY  0650   43 41   30/ 14/ 16 1016.7F   2/ 4
KENOSHA   LAKESH 0700   43      10/ 17/ 18 1017.3
$$

TC  - TEMPERATURE IN CELSIUS
VSB - VISIBILITY IN STATUTE MILES
WCI - WIND CHILL INDEX
HX  - HEAT INDEX





USA.gov is the U.S. government's official web portal to all federal, state and local government web resources and services.